Weather History for Muenster, Germany

Change the Weather History Date:

Sunday, December 8, 2013

  Actual Average Record
Temperature  
Mean Temperature 44 °F -  
Max Temperature 48 °F 39 °F 59 °F (2000)
Min Temperature 41 °F 31 °F 10 °F (1998)
Degree Days  
Heating Degree Days 20    
Moisture  
Dew Point 42 °F    
Average Humidity 88    
Maximum Humidity 93    
Minimum Humidity 79    
Precipitation  
Precipitation 0.00 in - - ()
Sea Level Pressure  
Sea Level Pressure 30.18 in    
Wind  
Wind Speed 10 mph ()    
Max Wind Speed 18 mph    
Max Gust Speed 29 mph    
Visibility 6.0 miles    
Events Rain    
Averages and records for this station are not official NWS values.
T = Trace of Precipitation, MM = Missing Value Source: Averaged Metar Reports

Daily Weather History Graph

Daily Weather History Graph

Search for Another Location

Airport:

Trip Planner

Search our weather history database for the weather conditions in past years. The results will help you decide how hot, cold, wet, or windy it might be!

Date:

Astronomy

Dec. 08, 2013 Rise Set
Actual Time 8:24 AM CET 4:17 PM CET
Civil Twilight 7:44 AM CET 4:58 PM CET
Nautical Twilight 7:00 AM CET 5:41 PM CET
Astronomical Twilight 6:19 AM CET 6:22 PM CET
Moon 12:02 PM CET (12/8) 11:26 PM CET (12/8)
Length of Visible Light 9h 13m
Length of Day
7h 52m
Waxing Crescent, 37% of the Moon is Illuminated
Dec 8
Waxing Crescent
Dec 9
First Quarter
Dec 17
Full
Dec 25
Last Quarter
Jan 1
New

Hourly Weather History & Observations

Time (CET) Temp. Windchill Dew Point Humidity Pressure Visibility Wind Dir Wind Speed Gust Speed Precip Events Conditions
12:00 AM 43 °F - 41 °F 92% 30.21 in 5 mi WSW 8.9 mph - - Rain Light Rain Showers
12:20 AM 42.8 °F 37.5 °F 41.0 °F 93% 30.18 in 5.0 mi WSW 9.2 mph - N/A   Mostly Cloudy
12:50 AM 42.8 °F 37.5 °F 41.0 °F 93% 30.21 in 5.0 mi WSW 9.2 mph - N/A Rain Light Rain Showers
1:00 AM 43 °F - 41 °F 91% 30.22 in 5 mi WSW 8.9 mph - - Rain Light Rain Showers
1:20 AM 42.8 °F 38.6 °F 41.0 °F 93% 30.18 in 3.7 mi West 6.9 mph - N/A Rain Light Rain Showers
1:50 AM 42.8 °F 38.6 °F 41.0 °F 93% 30.18 in 5.0 mi SW 6.9 mph - N/A   Mostly Cloudy
2:00 AM 43 °F - 41 °F 92% 30.22 in 5 mi SW 6.7 mph - - Rain Light Rain Showers
2:20 AM 42.8 °F 38.0 °F 41.0 °F 93% 30.18 in 5.0 mi SW 8.1 mph - N/A   Mostly Cloudy
2:50 AM 42.8 °F 38.0 °F 41.0 °F 93% 30.18 in 5.0 mi SW 8.1 mph - N/A   Mostly Cloudy
3:00 AM 43 °F - 41 °F 92% 30.22 in 5 mi SW 6.7 mph - -   Overcast
3:20 AM 42.8 °F 37.5 °F 41.0 °F 93% 30.18 in 5.6 mi SW 9.2 mph - N/A   Mostly Cloudy
3:50 AM 42.8 °F 37.5 °F 41.0 °F 93% 30.18 in 5.6 mi SW 9.2 mph - N/A   Mostly Cloudy
4:00 AM 44 °F - 41 °F 86% 30.21 in 6 mi SW 8.9 mph - -   Partly Cloudy
4:20 AM 42.8 °F 38.0 °F 41.0 °F 93% 30.18 in 5.6 mi SW 8.1 mph - N/A   Mostly Cloudy
4:50 AM 42.8 °F 38.0 °F 41.0 °F 93% 30.18 in 5.6 mi SW 8.1 mph - N/A   Mostly Cloudy
5:00 AM 44 °F - 41 °F 86% 30.21 in 6 mi SW 8.9 mph - -   Mostly Cloudy
5:20 AM 42.8 °F 38.0 °F 41.0 °F 93% 30.18 in 5.6 mi SW 8.1 mph - N/A   Mostly Cloudy
5:50 AM 42.8 °F 37.5 °F 41.0 °F 93% 30.18 in 5.6 mi SW 9.2 mph - N/A   Mostly Cloudy
6:00 AM 43 °F - 41 °F 90% 30.22 in 6 mi SW 8.9 mph - -   Mostly Cloudy
6:20 AM 42.8 °F 37.0 °F 41.0 °F 93% 30.18 in 5.6 mi SW 10.4 mph - N/A   Mostly Cloudy
6:50 AM 42.8 °F 38.0 °F 41.0 °F 93% 30.18 in 5.6 mi SW 8.1 mph - N/A   Mostly Cloudy
7:00 AM 43 °F - 41 °F 89% 30.22 in 6 mi SW 8.9 mph - -   Partly Cloudy
7:20 AM 42.8 °F 37.5 °F 41.0 °F 93% 30.18 in 5.0 mi SW 9.2 mph - N/A   Mostly Cloudy
7:50 AM 42.8 °F 37.5 °F 41.0 °F 93% 30.18 in 4.3 mi SW 9.2 mph - N/A Rain Light Rain
8:00 AM 43 °F - 41 °F 88% 30.21 in 4 mi SW 8.9 mph - - Rain Light Rain
8:20 AM 42.8 °F 37.5 °F 41.0 °F 93% 30.18 in 4.3 mi SW 9.2 mph - N/A   Mostly Cloudy
8:50 AM 42.8 °F 36.6 °F 41.0 °F 93% 30.18 in 4.3 mi SW 11.5 mph - N/A   Mostly Cloudy
9:00 AM 43 °F - 41 °F 91% 30.21 in 4 mi SW 11.2 mph - - Rain Light Rain
9:20 AM 44.6 °F 39.2 °F 41.0 °F 87% 30.18 in 4.3 mi SW 10.4 mph - N/A   Mostly Cloudy
9:50 AM 44.6 °F 38.8 °F 42.8 °F 93% 30.21 in 5.0 mi SW 11.5 mph - N/A   Mostly Cloudy
10:00 AM 44 °F - 42 °F 89% 30.23 in 5 mi SW 11.2 mph - -   Partly Cloudy
10:20 AM 44.6 °F 39.2 °F 42.8 °F 93% 30.21 in 5.0 mi SW 10.4 mph - N/A   Mostly Cloudy
10:50 AM 44.6 °F 38.1 °F 42.8 °F 93% 30.21 in 5.6 mi SW 13.8 mph - N/A   Mostly Cloudy
11:00 AM 45 °F - 42 °F 86% 30.23 in 6 mi SW 13.4 mph - -   Overcast
11:20 AM 44.6 °F 38.4 °F 42.8 °F 93% 30.21 in 5.6 mi SW 12.7 mph - N/A Rain Light Rain
11:50 AM 46.4 °F 40.1 °F 42.8 °F 87% 30.18 in 6.2 mi SW 15.0 mph - N/A   Mostly Cloudy
12:00 PM 46 °F - 43 °F 84% 30.21 in 6 mi SW 15.7 mph - - Rain Light Rain
12:20 PM 46.4 °F 39.8 °F 42.8 °F 87% 30.18 in 6.2 mi SW 16.1 mph - N/A   Mostly Cloudy
12:50 PM 46.4 °F 39.5 °F 42.8 °F 87% 30.18 in 6.2 mi SW 17.3 mph - N/A Rain Light Rain
1:00 PM 46 °F - 42 °F 83% 30.20 in 7 mi SW 17.9 mph - - Rain Light Rain
1:20 PM 46.4 °F 40.1 °F 42.8 °F 87% 30.18 in 6.2 mi SW 15.0 mph - N/A Rain Light Rain
1:50 PM 46.4 °F 40.1 °F 42.8 °F 87% 30.18 in 6.2 mi SW 15.0 mph - N/A   Mostly Cloudy
2:00 PM 46 °F - 43 °F 84% 30.19 in 7 mi SW 13.4 mph - - Rain Light Rain
2:20 PM 46.4 °F 39.8 °F 42.8 °F 87% 30.15 in 6.2 mi SW 16.1 mph - N/A   Mostly Cloudy
2:50 PM 46.4 °F 40.1 °F 42.8 °F 87% 30.15 in 6.2 mi SW 15.0 mph - N/A   Mostly Cloudy
3:00 PM 46 °F - 43 °F 84% 30.18 in 7 mi SW 15.7 mph - - Rain Light Rain
3:20 PM 46.4 °F 39.8 °F 42.8 °F 87% 30.15 in 6.2 mi SW 16.1 mph - N/A   Mostly Cloudy
3:50 PM 46.4 °F 39.8 °F 42.8 °F 87% 30.15 in 6.2 mi SW 16.1 mph - N/A   Mostly Cloudy
4:00 PM 47 °F - 43 °F 80% 30.17 in 9 mi SW 15.7 mph - - Rain Light Rain
4:20 PM 46.4 °F 39.8 °F 42.8 °F 87% 30.15 in 6.2 mi SW 16.1 mph - N/A   Mostly Cloudy
4:50 PM 46.4 °F 40.1 °F 42.8 °F 87% 30.15 in 6.2 mi SW 15.0 mph - N/A   Mostly Cloudy
5:00 PM 47 °F - 43 °F 80% 30.18 in 9 mi SW 15.7 mph - -   Overcast
5:20 PM 46.4 °F 40.1 °F 42.8 °F 87% 30.15 in 6.2 mi SW 15.0 mph - N/A   Mostly Cloudy
5:50 PM 46.4 °F 40.4 °F 42.8 °F 87% 30.15 in 6.2 mi WSW 13.8 mph - N/A   Mostly Cloudy
6:00 PM 47 °F - 43 °F 79% 30.18 in 11 mi WSW 13.4 mph - -   Overcast
6:20 PM 46.4 °F 40.1 °F 42.8 °F 87% 30.15 in 6.2 mi WSW 15.0 mph - N/A   Mostly Cloudy
6:50 PM 46.4 °F 40.1 °F 42.8 °F 87% 30.15 in 6.2 mi WSW 15.0 mph - N/A   Mostly Cloudy
7:00 PM 47 °F - 43 °F 79% 30.18 in 11 mi WSW 15.7 mph - -   Partly Cloudy
7:20 PM 46.4 °F 39.5 °F 42.8 °F 87% 30.15 in 6.2 mi WSW 17.3 mph - N/A   Mostly Cloudy
7:50 PM 46.4 °F 39.8 °F 42.8 °F 87% 30.15 in 6.2 mi WSW 16.1 mph - N/A   Light Drizzle
8:00 PM 47 °F - 43 °F 82% 30.18 in 6 mi WSW 15.7 mph - - Rain Light Drizzle
8:20 PM 48.2 °F - 42.8 °F 82% 30.15 in 6.2 mi WSW 17.3 mph - N/A   Mostly Cloudy
8:50 PM 48.2 °F - 44.6 °F 87% 30.15 in 6.2 mi WSW 17.3 mph 28.8 mph N/A   Mostly Cloudy
9:00 PM 48 °F - 44 °F 79% 30.18 in 7 mi WSW 17.9 mph - - Rain Light Drizzle
9:20 PM 48.2 °F - 44.6 °F 87% 30.15 in 6.2 mi WSW 17.3 mph - N/A   Mostly Cloudy
9:50 PM 48.2 °F - 44.6 °F 87% 30.15 in 6.2 mi WSW 15.0 mph - N/A   Mostly Cloudy
10:00 PM 48 °F - 44 °F 80% 30.19 in 7 mi WSW 15.7 mph - -   Partly Cloudy
10:20 PM 48.2 °F - 44.6 °F 87% 30.18 in 6.2 mi WSW 17.3 mph - N/A   Mostly Cloudy
10:50 PM 48.2 °F - 44.6 °F 87% 30.18 in 6.2 mi WSW 16.1 mph - N/A   Mostly Cloudy
11:00 PM 48 °F - 44 °F 80% 30.19 in 7 mi WSW 15.7 mph - -   Mostly Cloudy
11:20 PM 48.2 °F - 44.6 °F 87% 30.18 in 6.2 mi WSW 16.1 mph - N/A   Mostly Cloudy
11:50 PM 48.2 °F - 44.6 °F 87% 30.18 in 6.2 mi WSW 15.0 mph - N/A   Mostly Cloudy